Location: Unspecified
(42.9300°N, 71.1866°W)
Time: 06:22:48
(UTC-05:00)

Cosmos 2058 - Visible Passes

Search period start: 21 December 2014 00:00
Search period end: 31 December 2014 00:00
Orbit: 568 x 593 km, 82.5° (Epoch: 20 December)

Date Brightness Start Highest point End Pass type
(mag) Time Alt. Az. Time Alt. Az. Time Alt. Az.
21 Dec 6.0 06:31:58 10° NE 06:32:43 10° ENE 06:33:29 10° ENE visible
22 Dec 5.7 06:35:46 10° NE 06:38:03 14° ENE 06:40:19 10° ESE visible
23 Dec 5.5 06:40:19 10° NNE 06:43:20 19° ENE 06:46:20 10° ESE visible
29 Dec 5.9 05:35:10 10° NE 05:36:52 12° ENE 05:38:35 10° E visible
30 Dec 5.7 05:39:26 10° NNE 05:42:07 17° ENE 05:44:48 10° ESE visible
